Zurück zum Katalog

STARLINK-35775

AktivKommunikationVLEO
NORAD 67038·PAYLOAD·🇺🇸 United States

Gestartet Dec 11, 2025 von Cape Canaveral Space Force Station

Loading…

Nächste Überflüge (nächste 24 Stunden)

TLE

AktuellSource: CelesTrak SupGP

Epoche: Sep 15, 2026, 04:10 UTC

1 67038C 25294J   26258.17409722 -.00143310  00000+0 -51896-2 0  2583
2 67038  43.0031  47.7514 0001323 268.1929 352.3469 15.27657802    17

Verfolge STARLINK-35775 in Echtzeit mit AllMySat

Download on the App Store